| time (UTC) | temp F | wind direction | speed MPH | gust MPH | rain 1hr in | rain 24hr in | rain mn in | humidity % | barometer mb |
| 20260506001610 | 83 | 337 | 3.0 | 9.0 | 0.00 | 0.00 | 0.00 | 33 | 1013.5 |
| 20260505234535 | 83 | 3 | 3.0 | 9.0 | 0.00 | 0.00 | 0.00 | 31 | 1013.7 |
| 20260505233146 | 83 | 341 | 4.0 | 10.0 | 0.00 | 0.00 | 0.00 | 33 | 1013.8 |
| 20260505231533 | 83 | 9 | 4.0 | 9.0 | 0.00 | 0.00 | 0.00 | 31 | 1013.9 |
| 20260505230108 | 84 | 349 | 4.0 | 11.0 | 0.00 | 0.00 | 0.00 | 32 | 1014.0 |
| 20260505224537 | 83 | 345 | 4.0 | 9.0 | 0.00 | 0.00 | 0.00 | 32 | 1014.0 |
| 20260505223035 | 83 | 359 | 4.0 | 10.0 | 0.00 | 0.00 | 0.00 | 31 | 1014.1 |
| 20260505220035 | 82 | 332 | 3.0 | 9.0 | 0.00 | 0.00 | 0.00 | 33 | 1014.4 |
| 20260505214536 | 83 | 332 | 5.0 | 14.0 | 0.00 | 0.00 | 0.00 | 33 | 1014.5 |
| 20260505213034 | 83 | 343 | 4.0 | 9.0 | 0.00 | 0.00 | 0.00 | 36 | 1014.6 |
| 20260505204535 | 80 | 345 | 4.0 | 10.0 | 0.00 | 0.00 | 0.00 | 41 | 1014.8 |
| 20260505203038 | 80 | 12 | 4.0 | 12.0 | 0.00 | 0.00 | 0.00 | 40 | 1014.8 |
| 20260505201534 | 80 | 351 | 2.0 | 7.0 | 0.00 | 0.00 | 0.00 | 40 | 1014.9 |
| 20260505194651 | 79 | 322 | 3.0 | 10.0 | 0.00 | 0.00 | 0.00 | 43 | 1015.1 |
| 20260505193032 | 78 | 337 | 3.0 | 9.0 | 0.00 | 0.00 | 0.00 | 43 | 1015.1 |
| 20260505191533 | 76 | 313 | 2.0 | 6.0 | 0.00 | 0.00 | 0.00 | 46 | 1015.2 |
| 20260505190036 | 75 | 10 | 4.0 | 9.0 | 0.00 | 0.00 | 0.00 | 46 | 1015.3 |
| 20260505184534 | 74 | 359 | 3.0 | 7.0 | 0.00 | 0.00 | 0.00 | 47 | 1015.3 |
| 20260505181535 | 73 | 353 | 4.0 | 9.0 | 0.00 | 0.00 | 0.00 | 49 | 1015.3 |
| 20260505180035 | 72 | 334 | 3.0 | 9.0 | 0.00 | 0.00 | 0.00 | 51 | 1015.3 |
| 20260505174536 | 71 | 336 | 3.0 | 8.0 | 0.00 | 0.00 | 0.00 | 52 | 1015.3 |
| 20260505173035 | 70 | 332 | 4.0 | 9.0 | 0.00 | 0.00 | 0.00 | 53 | 1015.2 |
| 20260505170107 | 68 | 359 | 3.0 | 6.0 | 0.00 | 0.00 | 0.00 | 57 | 1015.1 |
| 20260505164536 | 65 | 337 | 2.0 | 6.0 | 0.00 | 0.00 | 0.00 | 62 | 1015.1 |
| 20260505163033 | 63 | 6 | 2.0 | 6.0 | 0.00 | 0.00 | 0.00 | 65 | 1015.1 |
| 20260505161536 | 63 | 53 | 2.0 | 5.0 | 0.00 | 0.00 | 0.00 | 66 | 1015.1 |
| 20260505153035 | 60 | 46 | 1.0 | 3.0 | 0.00 | 0.00 | 0.00 | 70 | 1014.9 |
| 20260505151537 | 59 | 59 | 1.0 | 3.0 | 0.00 | 0.00 | 0.00 | 72 | 1014.8 |
| 20260505124539 | 52 | 45 | 0.0 | 1.0 | 0.00 | 0.00 | 0.00 | 73 | 1013.5 |
| 20260505123036 | 53 | 49 | 0.0 | 4.0 | 0.00 | 0.00 | 0.00 | 70 | 1013.4 |
| 20260505121636 | 54 | 90 | 0.0 | 3.0 | 0.00 | 0.00 | 0.00 | 67 | 1013.3 |
| 20260505120036 | 56 | 67 | 1.0 | 3.0 | 0.00 | 0.00 | 0.00 | 65 | 1013.3 |
| 20260505114531 | 56 | 283 | 0.0 | 2.0 | 0.00 | 0.00 | 0.00 | 65 | 1013.2 |
| 20260505113036 | 55 | 270 | 0.0 | 1.0 | 0.00 | 0.00 | 0.00 | 66 | 1013.2 |
| 20260505111536 | 56 | 273 | 0.0 | 4.0 | 0.00 | 0.00 | 0.00 | 64 | 1013.1 |
| 20260505101535 | 58 | 220 | 2.0 | 6.0 | 0.00 | 0.00 | 0.00 | 63 | 1012.8 |
| 20260505100053 | 58 | 212 | 3.0 | 7.0 | 0.00 | 0.00 | 0.00 | 63 | 1012.7 |
| 20260505094534 | 58 | 204 | 4.0 | 7.0 | 0.00 | 0.00 | 0.00 | 63 | 1012.7 |
| 20260505091535 | 58 | 238 | 4.0 | 10.0 | 0.00 | 0.00 | 0.00 | 64 | 1012.5 |
| 20260505090051 | 58 | 236 | 4.0 | 8.0 | 0.00 | 0.00 | 0.00 | 65 | 1012.5 |
| 20260505084537 | 58 | 239 | 3.0 | 8.0 | 0.00 | 0.00 | 0.00 | 64 | 1012.5 |
| 20260505083033 | 58 | 236 | 3.0 | 7.0 | 0.00 | 0.00 | 0.00 | 63 | 1012.5 |
| 20260505081536 | 59 | 238 | 1.0 | 4.0 | 0.00 | 0.00 | 0.00 | 63 | 1012.5 |
| 20260505080037 | 60 | 253 | 3.0 | 7.0 | 0.00 | 0.00 | 0.00 | 61 | 1012.5 |
| 20260505074536 | 61 | 259 | 3.0 | 6.0 | 0.00 | 0.00 | 0.00 | 60 | 1012.4 |
| 20260505073036 | 62 | 227 | 4.0 | 10.0 | 0.00 | 0.00 | 0.00 | 60 | 1012.3 |
| 20260505071533 | 62 | 236 | 6.0 | 14.0 | 0.00 | 0.00 | 0.00 | 59 | 1012.1 |
| 20260505064536 | 63 | 239 | 8.0 | 15.0 | 0.00 | 0.00 | 0.00 | 58 | 1011.8 |
| 20260505063034 | 63 | 234 | 9.0 | 19.0 | 0.00 | 0.00 | 0.00 | 57 | 1011.9 |
| 20260505060040 | 63 | 248 | 11.0 | 19.0 | 0.00 | 0.00 | 0.00 | 55 | 1011.6 |
| 20260505054536 | 64 | 249 | 11.0 | 21.0 | 0.00 | 0.00 | 0.00 | 54 | 1011.5 |
| 20260505053037 | 64 | 250 | 13.0 | 23.0 | 0.00 | 0.00 | 0.00 | 53 | 1011.4 |
| 20260505041551 | 65 | 243 | 12.0 | 23.0 | 0.00 | 0.00 | 0.00 | 45 | 1011.1 |
| 20260505040049 | 65 | 247 | 12.0 | 22.0 | 0.00 | 0.00 | 0.00 | 44 | 1011.0 |
| 20260505034529 | 66 | 248 | 10.0 | 18.0 | 0.00 | 0.00 | 0.00 | 43 | 1010.7 |
| 20260505033036 | 67 | 249 | 11.0 | 20.0 | 0.00 | 0.00 | 0.00 | 42 | 1010.6 |
| 20260505031546 | 68 | 247 | 12.0 | 22.0 | 0.00 | 0.00 | 0.00 | 40 | 1010.3 |
| 20260505031535 | 69 | 246 | 12.0 | 23.0 | 0.00 | 0.00 | 0.00 | 38 | 1010.1 |
| 20260505024534 | 70 | 251 | 12.0 | 26.0 | 0.00 | 0.00 | 0.00 | 36 | 1010.1 |
| 20260505023107 | 71 | 250 | 13.0 | 23.0 | 0.00 | 0.00 | 0.00 | 34 | 1010.1 |
| 20260505021535 | 73 | 248 | 13.0 | 23.0 | 0.00 | 0.00 | 0.00 | 32 | 1010.0 |
| 20260505020033 | 74 | 252 | 14.0 | 23.0 | 0.00 | 0.00 | 0.00 | 30 | 1009.9 |
| 20260505014536 | 75 | 250 | 13.0 | 23.0 | 0.00 | 0.00 | 0.00 | 29 | 1009.9 |
| 20260505013035 | 76 | 252 | 13.0 | 21.0 | 0.00 | 0.00 | 0.00 | 29 | 1009.9 |
| 20260505011531 | 77 | 256 | 13.0 | 23.0 | 0.00 | 0.00 | 0.00 | 28 | 1009.9 |
| 20260505004534 | 80 | 263 | 13.0 | 24.0 | 0.00 | 0.00 | 0.00 | 28 | 1010.1 |
| 20260505003036 | 81 | 253 | 13.0 | 23.0 | 0.00 | 0.00 | 0.00 | 27 | 1010.1 |